Location: Pella
(41.4080°N, 92.9160°W)
Time: 06:26:07
(UTC-06:00)

ASTRO E2 - Visible Passes

Search period start: 07 December 2016 00:00
Search period end: 17 December 2016 00:00
Orbit: 516 x 523 km, 31.4° (Epoch: 06 December)

Date Brightness Start Highest point End Pass type
(mag) Time Alt. Az. Time Alt. Az. Time Alt. Az.
07 Dec 5.4 05:38:07 10° S 05:39:52 13° SSE 05:41:38 10° SE visible
08 Dec 5.3 05:21:27 11° SSW 05:23:18 14° SSE 05:25:23 10° SE visible
09 Dec 5.1 05:06:10 15° S 05:06:44 15° SSE 05:09:04 10° SE visible
09 Dec 4.9 06:43:41 10° SW 06:46:38 20° S 06:49:35 10° SE visible
10 Dec 5.2 04:50:48 15° SSE 04:50:48 15° SSE 04:52:40 10° SE visible
10 Dec 4.9 06:27:09 10° SW 06:30:05 19° S 06:33:01 10° SE visible
11 Dec 5.5 04:35:21 13° SE 04:35:21 13° SE 04:36:14 10° SE visible
11 Dec 4.8 06:10:37 10° SW 06:13:31 19° S 06:16:25 10° SE visible
12 Dec 4.8 05:54:49 13° SW 05:56:57 18° S 05:59:47 10° SE visible
13 Dec 4.7 05:39:17 16° SSW 05:40:23 18° S 05:43:08 10° SE visible
14 Dec 4.8 05:23:44 17° S 05:23:48 17° S 05:26:26 10° SSE visible
15 Dec 5.1 05:08:11 15° S 05:08:11 15° S 05:09:42 10° SSE visible
16 Dec 5.5 04:52:38 11° SSE 04:52:38 11° SSE 04:52:56 10° SSE visible
